STARLINK-36164, 67127

Orbit data source: Space-Track

STARLINK-36164, 67127 is a payload satellite owned by SpaceX/Seattle (US) in LEO that was launched on Mon, 15 Dec 2025 UTC via an FALCON 9 launch vehicle from the Air Force Eastern Test Range (AFETR). Payload-class satellites include a variety of spacecraft equipped with specific instruments for various scientific and technological missions. These include communications satellites like Starlink; space stations such as the ISS; scientific satellites like the Hubble; Earth observation satellites from companies like Planet Labs, Umbra, and HawkEye 360; GPS; miniature CubeSats for education and research; and military/defense satellites.

Not visible in the next 10 days
Identifier
67127, 2025-299AB
Orbit
LEO
Country
Flag of USUS
Related business
Manufacturer
SpaceX/Seattle
Mission
Operational spacecraft
Bus & Motor
STARLINK V2MO, Unknown motor
Mass
575 kg wet, ~530 kg dry
Launch date (UTC)
2025-12-15 (1 week ago)
Launch vehicle
FALCON 9
Launch site
Air Force Eastern Test Range (AFETR)
Object type
Payload
Rocket body
Debris
Shape & HBR
Unknown
Radar Cross Section
RCS unknown

Expand to show TLE details & history
Last TLE update: 5 hours ago

TLE from 5 hours ago
0 STARLINK-36164
1 67127U 25299AB  25355.58335648 -.01591126  73597-3 -37515-2 0  9996
2 67127  42.9996 262.6563 0002082 265.5292 205.9481 15.96002842  2230
Epoch: 2025-12-21T14:00Z
TLE epoch observation values (Epoch: 2025-12-21T14:00:01.999Z)
Latitude
39.54877°
Longitude
80.54885°
Altitude
289.096 km
Speed
7.739 km/s
True Right ascension
01h 23m 48s
True Declination
39° 22' 05"
Sunlit
Object was in full shadow at epoch
Visualization orbit readout
Latitude
Unknown
Longitude
Unknown
Altitude
Unknown
Speed
Unknown
Apparent Right ascension
Unknown
Apparent Declination
Unknown
Sunlit
N/A
Visualization observer readout
Local Sidereal Time
17:40:53
Azimuth
Unknown
Elevation
Unknown
Doppler factor
Unknown
Orbital elements
Apogee altitude
288.912 km
Perigee altitude
286.136 km
Semi-major axis
6,665.661 km
Eccentricity
0.00021
Inclination
42.9996°
RAAN
262.6563°
Arg. of periapsis
265.5292°
True anomaly
205.93766°
Mean anomaly
205.9481°
Eccentric anomaly
205.94288°
Mean motion
3.98821 °/min
Orbital period
90.27 mins
BSTAR
-0.0037515
Loading maneuver chart data...
Computing Atmospheric mass density...
Loading historical data...
Loading historical data...
Loading historical data...
Loading historical data...
Loading historical data...
Loading historical data...
Loading historical data...

Documentation

Showing up to 5 results
|